Location: Maccacari
(45.1333°N, 11.1333°E)
Time: 01:05:17
(UTC+00:00)

A-11 Canister half - Pass Details

Date: 23 January 2021
Orbit: 1525 x 1684 km, 47.3° (Epoch: 07 March)

Event Time Altitude Azimuth Distance (km) Brightness Sun altitude
Rises 14:47:49 0° 242° (WSW) 4,673 13.3 11.1°
Reaches altitude 10° 14:50:49 10° 241° (WSW) 3,700 13.1 10.7°
Maximum altitude 15:00:10 80° 157° (SSE) 1,581 9.4 9.5°
Drops below altitude 10° 15:09:50 10° 72° (ENE) 3,813 10.5 8.2°
Sets 15:12:58 0° 72° (ENE) 4,822 11.0 7.7°
